Regional Weather Roundup
Issued by NWS

Home | Current Version | Previous Version | Graphics & Text | Print | Product List | Glossary On
Versions: 1 2 3 4 5 6 7 8 9 10 11 12 13 14 15 16 17 18 19 20 21 22 23 24 25 26 27 28 29 30 31 32 33 34 35 36 37 38 39 40 41 42 43 44 45 46 47 48 49 50
000
ASUS45 KABQ 211110
RWRNM
NEW MEXICO REGIONAL WEATHER ROUNDUP
NATIONAL WEATHER SERVICE ALBUQUERQUE NM
500 AM MDT MON AUG 21 2017

NOTE: "FAIR" MEANS FEW OR NO CLOUDS BELOW 12,000 FEET AGL WITH NO
       SIGNIFICANT WEATHER OR OBSTRUCTIONS TO VISION.

      THIS PRODUCT IS RELEASED AS TWO VERSIONS.  ONE VERSION NEAR
      THE TOP OF THE HOUR CONTAINING PRELIMINARY DATA FROM ALBUQUERQUE
      AND OTHER STATIONS.  A FINAL VERSION WITH ADDITIONAL DATA IS
      ISSUED ABOUT 10 MINUTES AFTER THE HOUR.

NMZ501-503-504-510>518-211200-
NORTHWEST PLATEAU/NORTHCENTRAL MOUNTAINS

CITY           SKY/WX    TMP DP  RH WIND       PRES   REMARKS
FARMINGTON     FAIR      60  54  80 E7        30.20S
LOS ALAMOS     CLOUDY    56  49  77 NW7       30.30F
SANTA FE       CLOUDY    57  57 100 N7        30.25F
TAOS           LGT RAIN  55  53  93 NE5       30.32F
ANGEL FIRE     LGT RAIN  49  48  95 SE3       30.40S

$$
NMZ402-403-502-505>509-211200-
WESTCENTRAL MOUNTAINS/SOUTHWEST MOUNTAINS

CITY           SKY/WX    TMP DP  RH WIND       PRES   REMARKS
GALLUP         CLOUDY    53  52  96 CALM      30.26S
GRANTS         CLOUDY    58  53  82 CALM      30.28S
SILVER CITY    MOCLDY    62  61  96 CALM      30.21R

$$
NMZ407-409-411-412-211200-
SOUTHERN DESERTS

CITY           SKY/WX    TMP DP  RH WIND       PRES   REMARKS
DEMING         CLOUDY    66  64  93 CALM      30.14S
LAS CRUCES     CLOUDY    67  65  93 SE3       30.16S
HOLLOMAN AFB   CLOUDY    66  66 100 NE3       30.16R
ALAMOGORDO     MOCLDY    66  66 100 S7        30.16R
T OR C         MOCLDY    67  61  81 W5        30.16R

$$
NMZ519>523-211200-
CENTRAL VALLEYS/CENTRAL HIGHLANDS

CITY           SKY/WX    TMP DP  RH WIND       PRES   REMARKS
ALBUQUERQUE    CLOUDY    61  60  97 CALM      30.20S
MORIARTY ARPT  CLOUDY    63  62  98 CALM      30.26R
CLINES CORNERS CLOUDY    56  55  97 E6        30.29S
BELEN          CLOUDY    61  61 100 CALM      30.20S
SOCORRO        CLOUDY    64  58  83 N7        30.18S

$$
NMZ524>526-539-540-211200-
SOUTHCENTRAL MOUNTAINS

CITY           SKY/WX    TMP DP  RH WIND       PRES   REMARKS
RUIDOSO        NOT AVBL

$$
NMZ527>531-211200-
NORTHEAST HIGHLANDS/NORTHEAST PLAINS

CITY           SKY/WX    TMP DP  RH WIND       PRES   REMARKS
LAS VEGAS      CLOUDY    54  53  97 NW7       30.30S
RATON          MOCLDY    59  56  89 NE6       30.23F
CLAYTON        MOCLDY    62  58  86 SW7       30.15F

$$
NMZ532>537-211200-
EASTCENTRAL PLAINS

CITY           SKY/WX    TMP DP  RH WIND       PRES   REMARKS
SANTA ROSA     CLOUDY    64  63  97 CALM      30.17S
TUCUMCARI      CLOUDY    68  65  90 CALM      30.12F
CANNON AFB     CLOUDY    65  65 100 SE5       30.18R
CLOVIS AIRPORT LGT RAIN  65  64  97 SE6       30.18R

$$
NMZ028-029-538-211200-
SOUTHEAST PLAINS

CITY           SKY/WX    TMP DP  RH WIND       PRES   REMARKS
ROSWELL        HVY RAIN  69  67  93 S8        30.13R FOG
ARTESIA        FAIR      68  68 100 SE6       30.12S
CARLSBAD       CLOUDY    68  68 100 SE3       30.09F
HOBBS          LGT RAIN  68  66  94 NW6       30.16F


$$



USA.gov is the U.S. government's official web portal to all federal, state and local government web resources and services.